Terminal Aerodrome Forecast
Issued by NWS Houston/Galveston, TX

Home | Current Version | Previous Version | Text Only | Print | Product List | Glossary On
Versions: 1 2 3 4 5 6 7 8 9 10 11 12 13 14 15 16 17 18 19 20 21 22 23 24 25 26 27 28 29 30 31 32 33 34 35 36 37 38 39 40 41 42
000
FTUS44 KHGX 170034 AAA
TAFGLS
TAF AMD
KGLS 170034Z 1701/1724 VRB04KT P6SM VCTS FEW020CB BKN050 BKN250
      TEMPO 1701/1702 -RA BKN015
     FM170400 VRB05KT P6SM FEW020 SCT050 BKN250
     FM170900 VRB05KT P6SM VCSH SCT020 BKN250
     FM171500 17007KT P6SM VCTS SCT025CB BKN250=

USA.gov is the U.S. government's official web portal to all federal, state and local government web resources and services.